Weather History for Bradford, PA

Change the Weather History Date:

Sunday, February 17, 2013

  Actual Average Record
Temperature  
Mean Temperature 11 °F 24 °F  
Max Temperature 16 °F 33 °F 54 °F (2006)
Min Temperature 6 °F 15 °F -22 °F (1979)
Degree Days  
Heating Degree Days 54 36  
Month to date heating degree days 625  
Since 1 July heating degree days 5036  
Cooling Degree Days 0 0  
Month to date cooling degree days 0  
Year to date cooling degree days 0  
Moisture  
Dew Point 5 °F    
Average Humidity 71    
Maximum Humidity 84    
Minimum Humidity 54    
Precipitation  
Precipitation 0.00 in 0.08 in 0.93 in (1961)
Month to date precipitation 1.42  
Year to date precipitation 4.71  
Sea Level Pressure  
Sea Level Pressure 29.91 in    
Wind  
Wind Speed 10 mph (NW)    
Max Wind Speed 24 mph    
Max Gust Speed 37 mph    
Visibility 3 miles    
Events Snow    
T = Trace of Precipitation, MM = Missing Value Source: NWS Daily Summary

Daily Weather History Graph

Daily Weather History Graph

Search for Another Location

Airport:

Trip Planner

Search our weather history database for the weather conditions in past years. The results will help you decide how hot, cold, wet, or windy it might be!

Date:

Astronomy

Feb. 17, 2013 Rise Set
Actual Time 7:07 AM EST 5:50 PM EST
Civil Twilight 6:38 AM EST 6:19 PM EST
Nautical Twilight 6:06 AM EST 6:51 PM EST
Astronomical Twilight 5:33 AM EST 7:23 PM EST
Moon 10:51 AM EST (2/17) 12:51 AM EST (2/17)
Length of Visible Light 11h 40m
Length of Day
10h 43m
Waxing Crescent, 49% of the Moon is Illuminated
Feb 17
Waxing Crescent
Feb 17
First Quarter
Feb 25
Full
Mar 4
Last Quarter
Mar 11
New

Hourly Weather History & Observations

Time (EST) Temp. Windchill Dew Point Humidity Pressure Visibility Wind Dir Wind Speed Gust Speed Precip Events Conditions
12:48 AM 6.8 °F - 1.4 °F 79% 29.79 in 10.0 mi Calm Calm - N/A   Mostly Cloudy
12:53 AM 6.1 °F - 1.0 °F 80% 29.89 in 10.0 mi Calm Calm - N/A   Mostly Cloudy
1:53 AM 12.9 °F 5.2 °F 5.0 °F 71% 29.88 in 10.0 mi WNW 4.6 mph - N/A   Overcast
2:53 AM 12.9 °F 2.6 °F 5.0 °F 71% 29.87 in 10.0 mi West 6.9 mph - N/A   Scattered Clouds
3:53 AM 10.0 °F - 3.9 °F 76% 29.88 in 10.0 mi Calm Calm - N/A   Partly Cloudy
4:08 AM 10.0 °F 3.6 °F 3.9 °F 76% 29.78 in 8.0 mi Variable 3.5 mph - N/A   Mostly Cloudy
4:16 AM 10.9 °F 1.4 °F 5.0 °F 77% 29.78 in 1.8 mi West 5.8 mph - 0.00 in Snow Light Snow
4:34 AM 12.0 °F 5.9 °F 7.0 °F 80% 29.78 in 2.0 mi WNW 3.5 mph - 0.00 in Snow Light Snow
4:42 AM 12.0 °F 1.5 °F 7.0 °F 80% 29.78 in 1.5 mi NW 6.9 mph - 0.00 in Snow Light Snow
4:51 AM 12.2 °F 1.7 °F 6.8 °F 79% 29.78 in 2.5 mi WNW 6.9 mph - 0.00 in Snow Light Snow
4:53 AM 12.0 °F 1.5 °F 7.0 °F 80% 29.88 in 2.5 mi WNW 6.9 mph - 0.00 in Snow Light Snow
5:41 AM 12.0 °F 2.7 °F 8.1 °F 84% 29.79 in 1.5 mi NW 5.8 mph - 0.00 in Snow Light Snow
5:53 AM 12.9 °F 3.8 °F 8.1 °F 81% 29.89 in 1.2 mi NW 5.8 mph - 0.00 in Snow Light Snow
6:31 AM 12.9 °F 2.6 °F 8.1 °F 81% 29.79 in 0.8 mi WNW 6.9 mph - 0.00 in Snow Light Snow
6:50 AM 14.0 °F 3.9 °F 8.6 °F 79% 29.80 in 0.8 mi WNW 6.9 mph - 0.00 in Snow Light Snow
6:53 AM 14.0 °F 3.9 °F 9.0 °F 80% 29.90 in 0.8 mi WNW 6.9 mph - 0.00 in Snow Light Snow
7:00 AM 14.0 °F 5.1 °F 9.0 °F 80% 29.80 in 1.2 mi NW 5.8 mph - 0.00 in Snow Light Snow
7:09 AM 14.0 °F 3.9 °F 9.0 °F 80% 29.80 in 3.0 mi NW 6.9 mph - 0.00 in Snow Light Snow
7:21 AM 14.0 °F 3.9 °F 8.1 °F 77% 29.81 in 1.5 mi NW 6.9 mph - 0.00 in Snow Light Snow
7:31 AM 12.9 °F 2.6 °F 8.1 °F 81% 29.81 in 1.0 mi NW 6.9 mph - 0.00 in Snow Light Snow
7:53 AM 14.0 °F 1.2 °F 9.0 °F 80% 29.91 in 1.0 mi NNW 10.4 mph - 0.00 in Snow Light Snow
8:16 AM 12.9 °F 0.7 °F 8.1 °F 81% 29.82 in 1.5 mi NW 9.2 mph - 0.00 in Snow Light Snow
8:20 AM 12.9 °F 0.7 °F 8.1 °F 81% 29.82 in 3.0 mi NNW 9.2 mph - 0.00 in Snow Light Snow
8:40 AM 14.0 °F -2.5 °F 6.1 °F 71% 29.82 in 6.0 mi NW 17.3 mph 23.0 mph 0.00 in Snow Light Snow
8:53 AM 14.0 °F -2.5 °F 7.0 °F 74% 29.93 in 6.0 mi NW 17.3 mph 24.2 mph 0.00 in Snow Light Snow
9:53 AM 14.0 °F -2.0 °F 5.0 °F 67% 29.94 in 2.5 mi NW 16.1 mph 19.6 mph 0.00 in Snow Light Snow
10:09 AM 15.1 °F 0.5 °F 5.0 °F 64% 29.84 in 7.0 mi NNW 13.8 mph 25.3 mph 0.00 in Snow Light Snow
10:53 AM 15.1 °F -1.1 °F 3.9 °F 61% 29.97 in 6.0 mi NNW 17.3 mph 27.6 mph 0.00 in   Overcast
11:48 AM 15.8 °F -1.1 °F 3.2 °F 58% 29.86 in 4.0 mi NW 19.6 mph 26.5 mph 0.00 in Snow Light Snow
11:53 AM 16.0 °F -1.3 °F 3.0 °F 57% 29.98 in 4.0 mi WNW 20.7 mph 27.6 mph 0.00 in Snow Light Snow
12:06 PM 14.0 °F -2.5 °F 3.9 °F 64% 29.87 in 2.5 mi NNW 17.3 mph - 0.00 in Snow Light Snow
12:17 PM 14.0 °F -2.5 °F 3.9 °F 64% 29.87 in 2.0 mi WNW 17.3 mph - 0.00 in Snow Light Snow
12:29 PM 14.0 °F -3.0 °F 1.9 °F 59% 29.86 in 2.5 mi WNW 18.4 mph 32.2 mph 0.00 in Snow Light Snow
12:38 PM 16.0 °F -1.7 °F 1.9 °F 54% 29.86 in 3.0 mi WNW 21.9 mph 33.4 mph 0.00 in   Overcast
12:53 PM 14.0 °F -4.7 °F -0.0 °F 54% 29.98 in 4.0 mi WNW 23.0 mph 31.1 mph 0.00 in   Mostly Cloudy
1:31 PM 14.0 °F -2.5 °F 3.9 °F 64% 29.87 in 2.5 mi WNW 17.3 mph 29.9 mph 0.00 in Snow Light Snow
1:35 PM 14.0 °F -3.0 °F 3.9 °F 64% 29.87 in 3.0 mi NW 18.4 mph 29.9 mph 0.00 in Snow Light Snow
1:40 PM 12.9 °F -4.9 °F 3.9 °F 67% 29.87 in 1.8 mi NW 19.6 mph 29.9 mph 0.00 in Snow Light Snow
1:53 PM 12.9 °F -4.4 °F 3.9 °F 67% 29.98 in 1.0 mi NW 18.4 mph 26.5 mph 0.00 in Snow Light Snow
2:32 PM 12.9 °F -5.7 °F 5.0 °F 71% 29.88 in 0.8 mi NW 21.9 mph 27.6 mph 0.00 in Snow Light Snow
2:53 PM 12.9 °F -5.7 °F 3.0 °F 65% 29.99 in 1.2 mi WNW 21.9 mph 31.1 mph 0.00 in Snow Light Snow
3:00 PM 12.9 °F -5.3 °F 1.9 °F 62% 29.88 in 1.2 mi WNW 20.7 mph 29.9 mph 0.00 in Snow Light Snow
3:30 PM 12.9 °F -5.3 °F 1.0 °F 59% 29.90 in 1.0 mi WNW 20.7 mph 36.8 mph 0.00 in Snow Light Snow
3:37 PM 12.9 °F -4.9 °F 1.0 °F 59% 29.90 in 3.0 mi NW 19.6 mph 36.8 mph 0.00 in Snow Blowing Snow
3:50 PM 12.2 °F -7.1 °F 1.4 °F 62% 29.90 in 2.0 mi WNW 23.0 mph 31.1 mph 0.00 in Snow Light Snow
3:53 PM 12.9 °F -4.9 °F 1.0 °F 59% 30.01 in 3.0 mi WNW 19.6 mph 31.1 mph 0.00 in Snow Blowing Snow
4:05 PM 14.0 °F -3.0 °F 1.9 °F 59% 29.90 in 2.0 mi WNW 18.4 mph 29.9 mph 0.00 in Snow Light Snow
4:23 PM 14.0 °F -3.4 °F 1.9 °F 59% 29.90 in 3.0 mi WNW 19.6 mph 31.1 mph 0.00 in Snow Light Snow
4:27 PM 14.0 °F -5.1 °F 1.9 °F 59% 29.90 in 2.0 mi WNW 24.2 mph 31.1 mph 0.00 in Snow Light Snow
4:29 PM 14.0 °F -3.9 °F 1.9 °F 59% 29.91 in 1.8 mi WNW 20.7 mph 31.1 mph 0.00 in Snow Light Snow
4:40 PM 14.0 °F -0.2 °F 3.0 °F 62% 29.91 in 3.0 mi NW 12.7 mph 29.9 mph 0.00 in Snow Light Snow
4:53 PM 12.9 °F -4.4 °F 1.9 °F 62% 30.02 in 5.0 mi West 18.4 mph 32.2 mph 0.00 in Snow Blowing Snow
4:59 PM 12.9 °F -6.1 °F 1.9 °F 62% 29.91 in 1.8 mi WNW 23.0 mph 32.2 mph 0.00 in Snow Light Snow
5:12 PM 12.0 °F -6.5 °F 3.0 °F 67% 29.92 in 0.8 mi WNW 20.7 mph 27.6 mph 0.00 in Snow Light Snow
5:53 PM 12.0 °F -4.5 °F 3.9 °F 70% 30.04 in 1.0 mi WNW 16.1 mph - 0.00 in Snow Light Snow
6:36 PM 10.9 °F -6.5 °F 3.0 °F 70% 29.95 in 3.0 mi WNW 17.3 mph 21.9 mph 0.00 in Snow Light Snow
6:53 PM 10.9 °F -5.9 °F 3.0 °F 70% 30.06 in 5.0 mi WNW 16.1 mph 25.3 mph 0.00 in   Overcast
7:53 PM 10.9 °F -4.7 °F 3.9 °F 73% 30.09 in 5.0 mi WNW 13.8 mph - 0.00 in   Haze
8:42 PM 10.9 °F -3.4 °F 3.9 °F 73% 30.00 in 3.0 mi WNW 11.5 mph - 0.00 in Snow Light Snow
8:53 PM 10.9 °F -3.4 °F 3.9 °F 73% 30.12 in 2.5 mi NW 11.5 mph - 0.00 in Snow Light Snow
9:00 PM 10.9 °F -3.4 °F 3.9 °F 73% 30.01 in 4.0 mi WNW 11.5 mph - 0.00 in Snow Light Snow
9:10 PM 12.0 °F -1.3 °F 5.0 °F 73% 30.01 in 2.5 mi WNW 10.4 mph - 0.00 in Snow Light Snow
9:24 PM 10.9 °F -1.8 °F 5.0 °F 77% 30.02 in 2.0 mi WNW 9.2 mph - 0.00 in Snow Light Snow
9:42 PM 12.0 °F 1.5 °F 6.1 °F 77% 30.02 in 1.8 mi WNW 6.9 mph - 0.00 in Snow Light Snow
9:53 PM 12.0 °F -1.3 °F 6.1 °F 77% 30.14 in 1.5 mi NW 10.4 mph - 0.00 in Snow Light Snow
10:19 PM 12.0 °F -0.4 °F 5.0 °F 73% 30.04 in 2.5 mi WNW 9.2 mph - 0.00 in Snow Light Snow
10:53 PM 10.9 °F -3.4 °F 5.0 °F 77% 30.17 in 2.5 mi NW 11.5 mph - 0.00 in Snow Light Snow
10:59 PM 10.9 °F -3.4 °F 5.0 °F 77% 30.05 in 4.0 mi WNW 11.5 mph - 0.00 in Snow Light Snow
11:12 PM 10.9 °F -2.6 °F 5.0 °F 77% 30.05 in 3.0 mi WNW 10.4 mph - 0.00 in Snow Light Snow
11:25 PM 10.9 °F -4.1 °F 5.0 °F 77% 30.05 in 2.5 mi NW 12.7 mph - 0.00 in Snow Light Snow